2020 TR2
ephemeris date magn radius delta ra dec elong phase
Today15 Oct 202530.03.128 AU4.007 AU14h54m-17°13'24.7°7.6°
2020 TR2 - 2025-10-15
astro.vanbuitenen.nl


 
-1 year
-1 month
-1 day
Now
+1 day
+1 month
+1 year

The interactive orbit chart above shows the body's path through the solar system and its position at the given date. Green and blue lines are shown perpendicular to the ecliptic plane: Green if the path is above the ecliptic plane, blue if it is below. (Left-click and drag to rotate the view; Right-click and drag to move the view; Use scroll wheel to zoom in our out.)

The orbital elements of 2020 TR2 are:

            e (Eccentricity)                : 0.6653679
            a (Semimajor axis)              : 2.5297264
            i (Inclination)                 : 5.60198
            Ω (Longitude of ascending node) : 46.41328
            ω (Argument of perihelion)      : 41.80832
            M (Mean anomaly)                : 35.27848
            Epoch                           : 2025 May 05

            L (Longitude of perihelion)     : 88.08534
            B (Latitude of perihelion)      : 3.73120
            P (Orbital period in years)     : 4.02            
        

The light curve chart below shows the estimated development of the minor planet's magnitude.


The all-sky chart below shows the path of the minor planet over the same period as the light curve. The current position is marked yellow.





The following chart shows the path of the minor planet in the next few days. The field of view is optimized for (~10x50) binoculars and finderscopes. A more printer-friendly version of the same chart can be found below.




Ephemerides:
Date       Time       RA (2000)    DEC (2000)    delta   radius  elong  phase   PA    magn
2025-10-15 00:00 UT   14 54 14.0   -17 13 32     4.007    3.128   24.7    7.6   108   30.0 
2025-10-15 17:37 UT   14 55 11.5   -17 18 03     4.015    3.132   24.2    7.5   108   30.0 
2025-10-16 00:00 UT   14 55 32.4   -17 19 41     4.018    3.134   24.0    7.4   108   30.0 
2025-10-17 00:00 UT   14 56 50.8   -17 25 47     4.029    3.139   23.3    7.2   108   30.0 
2025-10-18 00:00 UT   14 58 09.3   -17 31 52     4.040    3.145   22.7    7.0   108   30.0 
2025-10-19 00:00 UT   14 59 27.8   -17 37 54     4.051    3.150   22.0    6.8   108   30.0 
2025-10-20 00:00 UT   15 00 46.4   -17 43 54     4.062    3.155   21.3    6.6   108   30.0 
2025-10-21 00:00 UT   15 02 05.0   -17 49 52     4.073    3.161   20.7    6.4   108   30.0 
2025-10-22 00:00 UT   15 03 23.7   -17 55 47     4.083    3.166   20.0    6.2   108   30.0 
2025-10-23 00:00 UT   15 04 42.3   -18 01 41     4.093    3.171   19.3    6.0   108   30.0 
2025-10-24 00:00 UT   15 06 01.0   -18 07 32     4.103    3.177   18.7    5.8   108   30.0 
2025-10-25 00:00 UT   15 07 19.7   -18 13 21     4.113    3.182   18.0    5.5   108   30.0 
2025-10-26 00:00 UT   15 08 38.5   -18 19 07     4.122    3.187   17.3    5.3   108   30.0 
2025-10-27 00:00 UT   15 09 57.2   -18 24 52     4.132    3.193   16.7    5.1   108   30.0 
2025-10-28 00:00 UT   15 11 15.9   -18 30 34     4.141    3.198   16.0    4.9   108   30.0 
2025-10-29 00:00 UT   15 12 34.7   -18 36 13     4.150    3.203   15.3    4.7   108   30.0 
2025-10-30 00:00 UT   15 13 53.4   -18 41 51     4.159    3.208   14.6    4.5   108   30.0 
2025-10-31 00:00 UT   15 15 12.2   -18 47 26     4.168    3.213   14.0    4.3   108   30.0 
2025-11-01 00:00 UT   15 16 30.9   -18 52 58     4.176    3.219   13.3    4.1   108   30.0 
2025-11-02 00:00 UT   15 17 49.6   -18 58 28     4.185    3.224   12.6    3.9   108   30.0 
2025-11-03 00:00 UT   15 19 08.3   -19 03 56     4.193    3.229   11.9    3.6   108   30.0 
2025-11-04 00:00 UT   15 20 27.0   -19 09 21     4.201    3.234   11.3    3.4   108   30.0 
2025-11-05 00:00 UT   15 21 45.6   -19 14 44     4.208    3.239   10.6    3.2   109   30.0 
2025-11-06 00:00 UT   15 23 04.2   -19 20 04     4.216    3.244    9.9    3.0   109   30.0 
2025-11-07 00:00 UT   15 24 22.8   -19 25 22     4.223    3.249    9.2    2.8   109   30.0 
2025-11-08 00:00 UT   15 25 41.4   -19 30 38     4.231    3.254    8.6    2.6   109   30.0 
2025-11-09 00:00 UT   15 26 59.9   -19 35 51     4.238    3.259    7.9    2.4   110   30.0 
2025-11-10 00:00 UT   15 28 18.4   -19 41 02     4.244    3.264    7.2    2.2   110   30.0 


    Terminology:
            
    delta:  distance between minor planet and earth in AU
    radius: distance between minor planet and sun in AU
    magn:   magnitude (brightness) estimate    
    ra:     right ascension in hours (24h = 360deg)
    dec:    declination in degrees
    elong:  elongation in degrees (angle sun-earth-minor planet)    
    phase:  phase angle in degrees (angle sun-minor planet-earth)        
    AU:     Astronomical Unit (mean distance between earth and sun: 149597870.7 km
    

Orbital elements provided by the MPC (Minor Planet Center).
Calculations by a modified version of AAPlus, a C# implementation of the AA+ project by PJ Naughter from the algorithms presented in the book "Astronomical Algorithms" by Jean Meeus.
NGC2000 dso catalog and star labels from VizieR as provided by the Strasbourg astronomical Data Center.
Tycho2 catalog from the ESO archive.